アトラス彗星

C/2019 L3 ( ATLAS )

English version
Home page
Updated on September 4, 2024

---------------------------------------------------------------------

・ プロフィール

発見日 2019年6月10日
発見光度 18.1等
発見者 Asteroid Terrestrial-Impact Last Alert System (ATLAS) search program

・ 写真集

・ 軌道要素

Epoch 2024 Mar. 31.0 TT = JDT 2460400.5
T 2022 Jan.  9.82889 TT                                 Rudenko
q   3.5551321            (2000.0)            P               Q
z  -0.0007113      Peri.  171.66136     -0.26041013     -0.66634523
 +/-0.0000002      Node   290.75011     +0.83712974     +0.20472100
e   1.0025289      Incl.   48.34468     +0.48104092     -0.71698908
>From 6393 observations 2019 June 10-2024 Feb. 24, mean residual 0".7.

・ 星図

・ 光度変化

        m1 = -2.5 + 5 logΔ + 17.0 log r(t - 100)  [ ,0]  (              〜2022年 1月 9日)
        m1 =  0.0 + 5 logΔ + 12.5 log r(t - 120)  [0, ]  (2022年 1月 9日〜              )

---------------------------------------------------------------------

軌道要素はM.P.E.C. 2024-D126に掲載されたものです。
星図はステラナビゲータ Ver.10 (アストロアーツ) で作成したものです。
光度グラフはComet for Windowsで作成したものです。

---------------------------------------------------------------------

Copyright(C) Seiichi Yoshida (comet@aerith.net). All rights reserved.